| time (UTC) | temp F | wind direction | speed knots | gust knots | rain 1hr in | rain 24hr in | rain mn in | humidity % | barometer mb |
| 20260507041004 | 63 | 247 | 0.9 | 3.5 | 0.00 | 0.00 | 0.00 | 34 | 1014.1 |
| 20260507040504 | 63 | 51 | 0.9 | 3.5 | 0.00 | 0.00 | 0.00 | 34 | 1014.0 |
| 20260507040004 | 63 | 50 | 0.0 | 3.5 | 0.00 | 0.00 | 0.00 | 33 | 1013.9 |
| 20260507035504 | 63 | 74 | 0.9 | 3.5 | 0.00 | 0.00 | 0.00 | 33 | 1013.8 |
| 20260507035003 | 64 | 74 | 1.7 | 3.5 | 0.00 | 0.00 | 0.00 | 32 | 1013.7 |
| 20260507034504 | 64 | 91 | 0.9 | 6.1 | 0.00 | 0.00 | 0.00 | 32 | 1013.7 |
| 20260507034004 | 65 | 90 | 0.9 | 7.0 | 0.00 | 0.00 | 0.00 | 32 | 1013.7 |
| 20260507033504 | 65 | 155 | 1.7 | 7.0 | 0.00 | 0.00 | 0.00 | 32 | 1013.5 |
| 20260507033002 | 65 | 233 | 2.6 | 12.2 | 0.00 | 0.00 | 0.00 | 31 | 1013.4 |
| 20260507032501 | 65 | 246 | 5.2 | 12.2 | 0.00 | 0.00 | 0.00 | 31 | 1013.3 |
| 20260507032001 | 65 | 218 | 6.1 | 12.2 | 0.00 | 0.00 | 0.00 | 31 | 1013.3 |
| 20260507031503 | 66 | 238 | 7.8 | 15.6 | 0.00 | 0.00 | 0.00 | 31 | 1013.2 |
| 20260507031001 | 66 | 260 | 9.6 | 15.6 | 0.00 | 0.00 | 0.00 | 31 | 1013.1 |
| 20260507030559 | 66 | 234 | 7.0 | 15.6 | 0.00 | 0.00 | 0.00 | 31 | 1012.9 |
| 20260507025559 | 66 | 254 | 7.8 | 13.9 | 0.00 | 0.00 | 0.00 | 30 | 1012.8 |
| 20260507025059 | 66 | 246 | 7.8 | 16.5 | 0.00 | 0.00 | 0.00 | 30 | 1012.6 |
| 20260507025001 | 66 | 248 | 7.0 | 16.5 | 0.00 | 0.00 | 0.00 | 30 | 1012.7 |
| 20260507024559 | 67 | 249 | 10.4 | 16.5 | 0.00 | 0.00 | 0.00 | 30 | 1012.6 |
| 20260507024058 | 67 | 237 | 9.6 | 15.6 | 0.00 | 0.00 | 0.00 | 30 | 1012.5 |
| 20260507023557 | 67 | 229 | 8.7 | 13.9 | 0.00 | 0.00 | 0.00 | 29 | 1012.4 |
| 20260507023057 | 67 | 243 | 8.7 | 13.9 | 0.00 | 0.00 | 0.00 | 29 | 1012.3 |
| 20260507022557 | 68 | 250 | 9.6 | 17.4 | 0.00 | 0.00 | 0.00 | 29 | 1012.2 |
| 20260507022057 | 68 | 238 | 10.4 | 17.4 | 0.00 | 0.00 | 0.00 | 29 | 1012.1 |
| 20260507021557 | 68 | 246 | 9.6 | 14.8 | 0.00 | 0.00 | 0.00 | 28 | 1012.1 |
| 20260507021056 | 69 | 224 | 10.4 | 14.8 | 0.00 | 0.00 | 0.00 | 28 | 1012.0 |
| 20260507020556 | 69 | 243 | 7.0 | 13.9 | 0.00 | 0.00 | 0.00 | 28 | 1012.0 |
| 20260507020113 | 69 | 237 | 8.7 | 17.4 | 0.00 | 0.00 | 0.00 | 28 | 1012.1 |
| 20260507015555 | 70 | 251 | 8.7 | 16.5 | 0.00 | 0.00 | 0.00 | 28 | 1012.1 |
| 20260507015055 | 70 | 246 | 10.4 | 15.6 | 0.00 | 0.00 | 0.00 | 27 | 1012.0 |
| 20260507014559 | 71 | 239 | 8.7 | 13.9 | 0.00 | 0.00 | 0.00 | 27 | 1012.0 |
| 20260507014056 | 71 | 219 | 7.0 | 15.6 | 0.00 | 0.00 | 0.00 | 26 | 1012.0 |
| 20260507013554 | 71 | 216 | 10.4 | 15.6 | 0.00 | 0.00 | 0.00 | 26 | 1012.0 |
| 20260507013054 | 72 | 223 | 7.0 | 13.9 | 0.00 | 0.00 | 0.00 | 26 | 1011.9 |
| 20260507012554 | 72 | 225 | 9.6 | 13.9 | 0.00 | 0.00 | 0.00 | 25 | 1011.9 |
| 20260507012054 | 73 | 234 | 10.4 | 13.9 | 0.00 | 0.00 | 0.00 | 25 | 1011.9 |
| 20260507011554 | 73 | 240 | 8.7 | 15.6 | 0.00 | 0.00 | 0.00 | 25 | 1011.9 |
| 20260507011053 | 73 | 230 | 9.6 | 15.6 | 0.00 | 0.00 | 0.00 | 24 | 1011.9 |
| 20260507010553 | 74 | 244 | 7.0 | 12.2 | 0.00 | 0.00 | 0.00 | 24 | 1012.0 |
| 20260507010106 | 74 | 257 | 7.8 | 14.8 | 0.00 | 0.00 | 0.00 | 24 | 1011.9 |
| 20260507005553 | 73 | 248 | 8.7 | 14.8 | 0.00 | 0.00 | 0.00 | 24 | 1011.8 |
| 20260507005052 | 74 | 237 | 12.2 | 14.8 | 0.00 | 0.00 | 0.00 | 23 | 1011.8 |
| 20260507004555 | 74 | 259 | 6.1 | 17.4 | 0.00 | 0.00 | 0.00 | 22 | 1011.8 |
| 20260507004053 | 74 | 242 | 9.6 | 17.4 | 0.00 | 0.00 | 0.00 | 24 | 1011.8 |
| 20260507003553 | 74 | 242 | 11.3 | 14.8 | 0.00 | 0.00 | 0.00 | 23 | 1011.5 |
| 20260507003052 | 75 | 246 | 9.6 | 14.8 | 0.00 | 0.00 | 0.00 | 22 | 1011.8 |
| 20260507002551 | 76 | 232 | 7.8 | 14.8 | 0.00 | 0.00 | 0.00 | 22 | 1011.5 |
| 20260507002051 | 76 | 244 | 9.6 | 15.6 | 0.00 | 0.00 | 0.00 | 22 | 1011.6 |
| 20260507001556 | 76 | 255 | 10.4 | 15.6 | 0.00 | 0.00 | 0.00 | 22 | 1011.5 |
| 20260507001050 | 76 | 202 | 5.2 | 12.2 | 0.00 | 0.00 | 0.00 | 20 | 1011.4 |
| 20260507000549 | 76 | 300 | 6.1 | 9.6 | 0.00 | 0.00 | 0.00 | 20 | 1011.5 |
| 20260507000050 | 76 | 294 | 5.2 | 14.8 | 0.00 | 0.00 | 0.00 | 21 | 1011.4 |
| 20260506235549 | 76 | 263 | 9.6 | 14.8 | 0.00 | 0.00 | 0.00 | 19 | 1011.3 |
| 20260506235048 | 76 | 301 | 7.0 | 14.8 | 0.00 | 0.00 | 0.00 | 20 | 1011.5 |
| 20260506234552 | 77 | 266 | 10.4 | 14.8 | 0.00 | 0.00 | 0.00 | 19 | 1011.4 |
| 20260506234048 | 77 | 260 | 7.0 | 15.6 | 0.00 | 0.00 | 0.00 | 19 | 1011.3 |
| 20260506233551 | 77 | 300 | 10.4 | 15.6 | 0.00 | 0.00 | 0.00 | 19 | 1011.3 |
| 20260506233047 | 77 | 267 | 8.7 | 12.2 | 0.00 | 0.00 | 0.00 | 18 | 1011.4 |
| 20260506232546 | 77 | 281 | 7.8 | 13.0 | 0.00 | 0.00 | 0.00 | 20 | 1011.5 |
| 20260506232044 | 76 | 279 | 7.8 | 16.5 | 0.00 | 0.00 | 0.00 | 20 | 1011.5 |
| 20260506231603 | 75 | 242 | 8.7 | 16.5 | 0.00 | 0.00 | 0.00 | 21 | 1011.5 |
| 20260506231043 | 74 | 72 | 1.7 | 7.0 | 0.00 | 0.00 | 0.00 | 21 | 1011.6 |
| 20260506230543 | 73 | 279 | 3.5 | 7.8 | 0.00 | 0.00 | 0.00 | 22 | 1011.9 |
| 20260506225541 | 73 | 117 | 1.7 | 7.8 | 0.00 | 0.00 | 0.00 | 22 | 1011.8 |
| 20260506225042 | 73 | 274 | 1.7 | 8.7 | 0.00 | 0.00 | 0.00 | 22 | 1011.8 |
| 20260506224541 | 74 | 286 | 6.1 | 11.3 | 0.00 | 0.00 | 0.00 | 21 | 1011.9 |
| 20260506224040 | 75 | 210 | 5.2 | 12.2 | 0.00 | 0.00 | 0.00 | 21 | 1011.9 |
| 20260506223543 | 75 | 247 | 4.3 | 12.2 | 0.00 | 0.00 | 0.00 | 21 | 1011.9 |
| 20260506223039 | 75 | 254 | 4.3 | 17.4 | 0.00 | 0.00 | 0.00 | 21 | 1011.9 |
| 20260506222540 | 75 | 248 | 11.3 | 17.4 | 0.00 | 0.00 | 0.00 | 20 | 1011.8 |
| 20260506222040 | 75 | 265 | 7.8 | 13.9 | 0.00 | 0.00 | 0.00 | 21 | 1012.2 |
| 20260506221541 | 74 | 314 | 7.8 | 13.0 | 0.00 | 0.00 | 0.00 | 21 | 1012.2 |
| 20260506221038 | 75 | 189 | 4.3 | 15.6 | 0.00 | 0.00 | 0.00 | 21 | 1012.4 |
| 20260506220535 | 75 | 275 | 7.0 | 15.6 | 0.00 | 0.00 | 0.00 | 21 | 1012.6 |
| 20260506220038 | 74 | 227 | 4.3 | 13.0 | 0.00 | 0.00 | 0.00 | 21 | 1012.5 |
| 20260506215534 | 75 | 271 | 7.8 | 13.0 | 0.00 | 0.00 | 0.00 | 21 | 1012.7 |
| 20260506215034 | 75 | 342 | 8.7 | 13.0 | 0.00 | 0.00 | 0.00 | 21 | 1012.8 |
| 20260506214538 | 74 | 336 | 7.8 | 11.3 | 0.00 | 0.00 | 0.00 | 22 | 1012.9 |
| 20260506214034 | 74 | 304 | 1.7 | 11.3 | 0.00 | 0.00 | 0.00 | 23 | 1012.9 |
| 20260506213532 | 74 | 261 | 7.0 | 11.3 | 0.00 | 0.00 | 0.00 | 22 | 1013.0 |
| 20260506213033 | 74 | 248 | 4.3 | 11.3 | 0.00 | 0.00 | 0.00 | 23 | 1013.1 |
| 20260506212531 | 73 | 309 | 3.5 | 11.3 | 0.00 | 0.00 | 0.00 | 22 | 1013.1 |
| 20260506212030 | 73 | 128 | 3.5 | 10.4 | 0.00 | 0.00 | 0.00 | 22 | 1013.2 |
| 20260506211629 | 73 | 307 | 6.1 | 12.2 | 0.00 | 0.00 | 0.00 | 22 | 1013.3 |
| 20260506211030 | 73 | 243 | 7.0 | 12.2 | 0.00 | 0.00 | 0.00 | 22 | 1013.4 |
| 20260506210530 | 73 | 246 | 2.6 | 13.9 | 0.00 | 0.00 | 0.00 | 22 | 1013.3 |
| 20260506210032 | 73 | 266 | 9.6 | 13.9 | 0.00 | 0.00 | 0.00 | 23 | 1013.4 |
| 20260506205529 | 73 | 270 | 5.2 | 10.4 | 0.00 | 0.00 | 0.00 | 23 | 1013.5 |
| 20260506205029 | 74 | 304 | 7.0 | 15.6 | 0.00 | 0.00 | 0.00 | 23 | 1013.6 |
| 20260506204533 | 73 | 288 | 5.2 | 15.6 | 0.00 | 0.00 | 0.00 | 24 | 1013.5 |
| 20260506204026 | 72 | 292 | 6.1 | 14.8 | 0.00 | 0.00 | 0.00 | 23 | 1013.9 |
| 20260506203525 | 72 | 195 | 7.8 | 14.8 | 0.00 | 0.00 | 0.00 | 24 | 1013.8 |
| 20260506203025 | 72 | 231 | 6.1 | 10.4 | 0.00 | 0.00 | 0.00 | 24 | 1013.9 |
| 20260506202524 | 71 | 267 | 2.6 | 16.5 | 0.00 | 0.00 | 0.00 | 24 | 1014.0 |
| 20260506202025 | 71 | 223 | 7.0 | 16.5 | 0.00 | 0.00 | 0.00 | 24 | 1014.3 |
| 20260506201535 | 72 | 242 | 7.8 | 18.2 | 0.00 | 0.00 | 0.00 | 24 | 1014.2 |
| 20260506201024 | 72 | 290 | 9.6 | 18.2 | 0.00 | 0.00 | 0.00 | 25 | 1014.3 |
| 20260506200523 | 71 | 266 | 6.1 | 13.9 | 0.00 | 0.00 | 0.00 | 25 | 1014.5 |
| 20260506200023 | 70 | 264 | 7.8 | 14.8 | 0.00 | 0.00 | 0.00 | 26 | 1014.5 |
| 20260506195523 | 70 | 250 | 7.8 | 15.6 | 0.00 | 0.00 | 0.00 | 25 | 1014.6 |
| 20260506195022 | 71 | 316 | 10.4 | 20.0 | 0.00 | 0.00 | 0.00 | 24 | 1014.7 |
| 20260506194521 | 70 | 278 | 9.6 | 20.0 | 0.00 | 0.00 | 0.00 | 26 | 1014.6 |
| 20260506194024 | 69 | 268 | 7.0 | 14.8 | 0.00 | 0.00 | 0.00 | 25 | 1014.7 |
| 20260506193518 | 69 | 266 | 9.6 | 16.5 | 0.00 | 0.00 | 0.00 | 26 | 1014.9 |
| 20260506193024 | 69 | 272 | 7.8 | 16.5 | 0.00 | 0.00 | 0.00 | 26 | 1014.7 |
| 20260506192518 | 68 | 256 | 6.1 | 14.8 | 0.00 | 0.00 | 0.00 | 26 | 1014.7 |
| 20260506192021 | 69 | 315 | 6.1 | 13.0 | 0.00 | 0.00 | 0.00 | 26 | 1014.9 |
| 20260506191517 | 68 | 287 | 7.8 | 13.0 | 0.00 | 0.00 | 0.00 | 27 | 1014.9 |
| 20260506191018 | 68 | 342 | 6.1 | 12.2 | 0.00 | 0.00 | 0.00 | 26 | 1015.0 |
| 20260506190516 | 68 | 315 | 3.5 | 12.2 | 0.00 | 0.00 | 0.00 | 27 | 1015.1 |
| 20260506190025 | 68 | 335 | 7.0 | 12.2 | 0.00 | 0.00 | 0.00 | 27 | 1015.2 |
| 20260506185515 | 67 | 271 | 7.0 | 11.3 | 0.00 | 0.00 | 0.00 | 27 | 1015.3 |
| 20260506185014 | 67 | 96 | 1.7 | 12.2 | 0.00 | 0.00 | 0.00 | 26 | 1015.3 |
| 20260506184520 | 67 | 232 | 6.1 | 11.3 | 0.00 | 0.00 | 0.00 | 27 | 1015.3 |
| 20260506184014 | 67 | 265 | 2.6 | 8.7 | 0.00 | 0.00 | 0.00 | 26 | 1015.4 |
| 20260506183513 | 67 | 272 | 5.2 | 8.7 | 0.00 | 0.00 | 0.00 | 26 | 1015.4 |
| 20260506183012 | 66 | 174 | 3.5 | 8.7 | 0.00 | 0.00 | 0.00 | 27 | 1015.4 |
| 20260506182511 | 66 | 209 | 4.3 | 10.4 | 0.00 | 0.00 | 0.00 | 26 | 1015.4 |
| 20260506182009 | 65 | 240 | 2.6 | 10.4 | 0.00 | 0.00 | 0.00 | 28 | 1015.5 |
| 20260506181512 | 65 | 131 | 3.5 | 8.7 | 0.00 | 0.00 | 0.00 | 27 | 1015.6 |
| 20260506181009 | 64 | 291 | 1.7 | 9.6 | 0.00 | 0.00 | 0.00 | 28 | 1015.7 |
| 20260506180508 | 64 | 311 | 5.2 | 11.3 | 0.00 | 0.00 | 0.00 | 28 | 1015.7 |
| 20260506180014 | 64 | 321 | 3.5 | 10.4 | 0.00 | 0.00 | 0.00 | 28 | 1015.6 |
| 20260506175509 | 64 | 355 | 3.5 | 10.4 | 0.00 | 0.00 | 0.00 | 28 | 1015.6 |
| 20260506175007 | 65 | 259 | 7.0 | 10.4 | 0.00 | 0.00 | 0.00 | 28 | 1015.8 |
| 20260506174518 | 64 | 345 | 2.6 | 6.1 | 0.00 | 0.00 | 0.00 | 29 | 1015.7 |
| 20260506174006 | 63 | 294 | 1.7 | 6.1 | 0.00 | 0.00 | 0.00 | 29 | 1015.7 |
| 20260506173505 | 63 | 173 | 0.9 | 7.8 | 0.00 | 0.00 | 0.00 | 29 | 1015.7 |
| 20260506173005 | 63 | 273 | 2.6 | 11.3 | 0.00 | 0.00 | 0.00 | 30 | 1015.8 |
| 20260506172503 | 62 | 322 | 4.3 | 11.3 | 0.00 | 0.00 | 0.00 | 31 | 1015.7 |
| 20260506172002 | 62 | 281 | 4.3 | 7.8 | 0.00 | 0.00 | 0.00 | 30 | 1015.8 |
| 20260506171501 | 61 | 193 | 1.7 | 8.7 | 0.00 | 0.00 | 0.00 | 31 | 1015.8 |
| 20260506171002 | 61 | 212 | 3.5 | 8.7 | 0.00 | 0.00 | 0.00 | 31 | 1015.8 |
| 20260506170502 | 62 | 296 | 4.3 | 7.8 | 0.00 | 0.00 | 0.00 | 31 | 1015.8 |
| 20260506165601 | 61 | 269 | 0.9 | 4.3 | 0.00 | 0.00 | 0.00 | 34 | 1015.9 |
| 20260506165058 | 60 | 302 | 0.9 | 6.1 | 0.00 | 0.00 | 0.00 | 35 | 1015.8 |
| 20260506164559 | 60 | 295 | 1.7 | 7.0 | 0.00 | 0.00 | 0.00 | 35 | 1016.0 |
| 20260506164058 | 60 | 234 | 1.7 | 7.0 | 0.00 | 0.00 | 0.00 | 34 | 1016.0 |
| 20260506163557 | 59 | 236 | 0.9 | 3.5 | 0.00 | 0.00 | 0.00 | 35 | 1015.8 |
| 20260506163057 | 58 | 227 | 0.9 | 4.3 | 0.00 | 0.00 | 0.00 | 36 | 1015.9 |
| 20260506162553 | 58 | 252 | 0.9 | 4.3 | 0.00 | 0.00 | 0.00 | 36 | 1016.0 |
| 20260506162055 | 58 | 199 | 1.7 | 3.5 | 0.00 | 0.00 | 0.00 | 38 | 1015.9 |
| 20260506161553 | 58 | 198 | 0.9 | 3.5 | 0.00 | 0.00 | 0.00 | 38 | 1015.9 |
| 20260506161052 | 58 | 222 | 1.7 | 3.5 | 0.00 | 0.00 | 0.00 | 39 | 1016.0 |
| 20260506160551 | 57 | 135 | 0.9 | 3.5 | 0.00 | 0.00 | 0.00 | 40 | 1016.0 |
| 20260506160101 | 56 | 136 | 0.9 | 3.5 | 0.00 | 0.00 | 0.00 | 41 | 1016.0 |
| 20260506155548 | 56 | 158 | 0.0 | 3.5 | 0.00 | 0.00 | 0.00 | 42 | 1016.1 |
| 20260506155047 | 55 | 144 | 0.9 | 3.5 | 0.00 | 0.00 | 0.00 | 43 | 1016.1 |
| 20260506154546 | 54 | 197 | 0.9 | 2.6 | 0.00 | 0.00 | 0.00 | 43 | 1016.0 |
| 20260506154046 | 54 | 302 | 0.0 | 2.6 | 0.00 | 0.00 | 0.00 | 44 | 1016.1 |
| 20260506153545 | 53 | 302 | 0.0 | 2.6 | 0.00 | 0.00 | 0.00 | 43 | 1016.1 |
| 20260506153043 | 52 | 301 | 0.0 | 2.6 | 0.00 | 0.00 | 0.00 | 44 | 1016.2 |
| 20260506152544 | 51 | 300 | 0.9 | 2.6 | 0.00 | 0.00 | 0.00 | 44 | 1016.2 |
| 20260506152038 | 50 | 306 | 0.0 | 2.6 | 0.00 | 0.00 | 0.00 | 45 | 1016.1 |
| 20260506151541 | 49 | 304 | 0.0 | 2.6 | 0.00 | 0.00 | 0.00 | 46 | 1016.1 |
| 20260506151035 | 48 | 304 | 0.0 | 1.7 | 0.00 | 0.00 | 0.00 | 47 | 1016.0 |
| 20260506150536 | 47 | 304 | 0.0 | 1.7 | 0.00 | 0.00 | 0.00 | 48 | 1016.1 |
| 20260506150032 | 46 | 305 | 0.0 | 1.7 | 0.00 | 0.00 | 0.00 | 49 | 1016.1 |
| 20260506145531 | 45 | 305 | 0.0 | 3.5 | 0.00 | 0.00 | 0.00 | 50 | 1016.1 |
| 20260506145030 | 45 | 305 | 0.9 | 3.5 | 0.00 | 0.00 | 0.00 | 50 | 1016.1 |
| 20260506144530 | 44 | 280 | 0.9 | 2.6 | 0.00 | 0.00 | 0.00 | 51 | 1016.1 |
| 20260506144030 | 43 | 280 | 0.9 | 2.6 | 0.00 | 0.00 | 0.00 | 52 | 1016.1 |
| 20260506143531 | 43 | 280 | 0.9 | 2.6 | 0.00 | 0.00 | 0.00 | 52 | 1016.0 |
| 20260506143027 | 42 | 280 | 0.0 | 2.6 | 0.00 | 0.00 | 0.00 | 53 | 1016.0 |
| 20260506142526 | 41 | 280 | 0.9 | 2.6 | 0.00 | 0.00 | 0.00 | 54 | 1016.1 |
| 20260506142026 | 40 | 279 | 0.9 | 2.6 | 0.00 | 0.00 | 0.00 | 55 | 1016.2 |
| 20260506141526 | 39 | 279 | 1.7 | 3.5 | 0.00 | 0.00 | 0.00 | 55 | 1016.3 |
| 20260506141026 | 39 | 279 | 0.9 | 3.5 | 0.00 | 0.00 | 0.00 | 56 | 1016.4 |
| 20260506140526 | 38 | 279 | 2.6 | 3.5 | 0.00 | 0.00 | 0.00 | 55 | 1016.4 |
| 20260506140031 | 38 | 292 | 1.7 | 3.5 | 0.00 | 0.00 | 0.00 | 55 | 1016.4 |
| 20260506135528 | 38 | 279 | 1.7 | 3.5 | 0.00 | 0.00 | 0.00 | 54 | 1016.3 |
| 20260506135024 | 38 | 277 | 0.9 | 1.7 | 0.00 | 0.00 | 0.00 | 55 | 1016.2 |
| 20260506134524 | 38 | 277 | 0.9 | 1.7 | 0.00 | 0.00 | 0.00 | 56 | 1016.2 |
| 20260506134025 | 37 | 277 | 0.0 | 1.7 | 0.00 | 0.00 | 0.00 | 57 | 1016.1 |
| 20260506133523 | 37 | 277 | 0.0 | 2.6 | 0.00 | 0.00 | 0.00 | 57 | 1016.0 |
| 20260506133028 | 36 | 277 | 0.9 | 2.6 | 0.00 | 0.00 | 0.00 | 57 | 1015.9 |
| 20260506132522 | 36 | 277 | 0.9 | 1.7 | 0.00 | 0.00 | 0.00 | 59 | 1015.9 |
| 20260506132023 | 35 | 296 | 0.0 | 0.9 | 0.00 | 0.00 | 0.00 | 60 | 1016.0 |
| 20260506131521 | 34 | 296 | 0.0 | 0.0 | 0.00 | 0.00 | 0.00 | 61 | 1015.7 |
| 20260506131023 | 33 | 296 | 0.0 | 0.0 | 0.00 | 0.00 | 0.00 | 61 | 1015.5 |
| 20260506130520 | 33 | 296 | 0.0 | 0.0 | 0.00 | 0.00 | 0.00 | 61 | 1015.5 |
| 20260506130019 | 33 | 296 | 0.0 | 0.0 | 0.00 | 0.00 | 0.00 | 61 | 1015.4 |
| 20260506125518 | 33 | 296 | 0.0 | 0.0 | 0.00 | 0.00 | 0.00 | 60 | 1015.3 |
| 20260506125017 | 33 | 296 | 0.0 | 0.0 | 0.00 | 0.00 | 0.00 | 59 | 1015.2 |
| 20260506124521 | 33 | 296 | 0.0 | 1.7 | 0.00 | 0.00 | 0.00 | 59 | 1015.1 |
| 20260506124018 | 33 | 296 | 0.0 | 1.7 | 0.00 | 0.00 | 0.00 | 59 | 1015.0 |
| 20260506123516 | 33 | 296 | 0.9 | 2.6 | 0.00 | 0.00 | 0.00 | 59 | 1015.0 |
| 20260506123014 | 34 | 296 | 1.7 | 2.6 | 0.00 | 0.00 | 0.00 | 59 | 1015.0 |
| 20260506122513 | 34 | 307 | 0.0 | 1.7 | 0.00 | 0.00 | 0.00 | 59 | 1014.9 |
| 20260506122014 | 34 | 307 | 0.0 | 1.7 | 0.00 | 0.00 | 0.00 | 57 | 1014.9 |
| 20260506121511 | 34 | 307 | 0.9 | 2.6 | 0.00 | 0.00 | 0.00 | 57 | 1014.8 |
| 20260506121010 | 34 | 307 | 0.9 | 2.6 | 0.00 | 0.00 | 0.00 | 58 | 1014.8 |
| 20260506120509 | 34 | 307 | 0.9 | 2.6 | 0.00 | 0.00 | 0.00 | 59 | 1014.6 |
| 20260506120009 | 34 | 307 | 0.0 | 1.7 | 0.00 | 0.00 | 0.00 | 60 | 1014.6 |
| 20260506115509 | 34 | 307 | 0.0 | 1.7 | 0.00 | 0.00 | 0.00 | 60 | 1014.4 |
| 20260506115007 | 34 | 307 | 0.0 | 0.0 | 0.00 | 0.00 | 0.00 | 59 | 1014.3 |
| 20260506114527 | 34 | 307 | 0.0 | 0.0 | 0.00 | 0.00 | 0.00 | 58 | 1014.3 |
| 20260506114007 | 34 | 307 | 0.0 | 0.0 | 0.00 | 0.00 | 0.00 | 58 | 1014.4 |
| 20260506113507 | 34 | 307 | 0.0 | 0.9 | 0.00 | 0.00 | 0.00 | 58 | 1014.4 |
| 20260506113006 | 34 | 307 | 0.0 | 2.6 | 0.00 | 0.00 | 0.00 | 58 | 1014.4 |
| 20260506112507 | 34 | 307 | 0.9 | 2.6 | 0.00 | 0.00 | 0.00 | 58 | 1014.5 |
| 20260506112005 | 34 | 307 | 0.9 | 1.7 | 0.00 | 0.00 | 0.00 | 57 | 1014.4 |
| 20260506111504 | 35 | 307 | 0.0 | 2.6 | 0.00 | 0.00 | 0.00 | 57 | 1014.4 |
| 20260506111004 | 35 | 307 | 0.9 | 2.6 | 0.00 | 0.00 | 0.00 | 56 | 1014.4 |
| 20260506110501 | 35 | 307 | 0.9 | 2.6 | 0.00 | 0.00 | 0.00 | 56 | 1014.4 |
| 20260506110101 | 35 | 307 | 0.9 | 2.6 | 0.00 | 0.00 | 0.00 | 57 | 1014.4 |
| 20260506105600 | 35 | 307 | 1.7 | 3.5 | 0.00 | 0.00 | 0.00 | 57 | 1014.3 |
| 20260506105104 | 36 | 294 | 1.7 | 3.5 | 0.00 | 0.00 | 0.00 | 56 | 1014.2 |
| 20260506104606 | 36 | 270 | 1.7 | 3.5 | 0.00 | 0.00 | 0.00 | 57 | 1014.2 |
| 20260506104058 | 37 | 237 | 1.7 | 2.6 | 0.00 | 0.00 | 0.00 | 58 | 1014.1 |
| 20260506103556 | 37 | 171 | 2.6 | 3.5 | 0.00 | 0.00 | 0.00 | 59 | 1013.9 |
| 20260506103055 | 38 | 171 | 2.6 | 3.5 | 0.00 | 0.00 | 0.00 | 58 | 1013.8 |
| 20260506102555 | 38 | 171 | 2.6 | 4.3 | 0.00 | 0.00 | 0.00 | 58 | 1013.8 |
| 20260506102053 | 39 | 169 | 2.6 | 4.3 | 0.00 | 0.00 | 0.00 | 57 | 1013.7 |
| 20260506101552 | 39 | 164 | 2.6 | 5.2 | 0.00 | 0.00 | 0.00 | 58 | 1013.8 |
| 20260506101052 | 38 | 162 | 3.5 | 5.2 | 0.00 | 0.00 | 0.00 | 58 | 1013.6 |
| 20260506100552 | 38 | 159 | 1.7 | 5.2 | 0.00 | 0.00 | 0.00 | 58 | 1013.6 |
| 20260506100104 | 38 | 155 | 2.6 | 5.2 | 0.00 | 0.00 | 0.00 | 58 | 1013.4 |
| 20260506095552 | 38 | 152 | 2.6 | 5.2 | 0.00 | 0.00 | 0.00 | 58 | 1013.2 |
| 20260506095049 | 38 | 165 | 3.5 | 5.2 | 0.00 | 0.00 | 0.00 | 58 | 1013.1 |
| 20260506094548 | 38 | 173 | 2.6 | 4.3 | 0.00 | 0.00 | 0.00 | 57 | 1013.0 |
| 20260506094045 | 38 | 176 | 2.6 | 4.3 | 0.00 | 0.00 | 0.00 | 56 | 1013.1 |
| 20260506093544 | 38 | 202 | 0.9 | 2.6 | 0.00 | 0.00 | 0.00 | 56 | 1013.0 |
| 20260506093043 | 38 | 202 | 0.9 | 3.5 | 0.00 | 0.00 | 0.00 | 57 | 1013.0 |
| 20260506092543 | 38 | 203 | 1.7 | 3.5 | 0.00 | 0.00 | 0.00 | 57 | 1012.9 |
| 20260506092045 | 38 | 215 | 0.9 | 1.7 | 0.00 | 0.00 | 0.00 | 56 | 1012.9 |
| 20260506091542 | 39 | 215 | 0.0 | 2.6 | 0.00 | 0.00 | 0.00 | 55 | 1012.9 |
| 20260506091041 | 39 | 215 | 1.7 | 2.6 | 0.00 | 0.00 | 0.00 | 55 | 1012.9 |
| 20260506090540 | 39 | 215 | 0.9 | 2.6 | 0.00 | 0.00 | 0.00 | 54 | 1012.9 |
| 20260506090040 | 39 | 215 | 0.9 | 1.7 | 0.00 | 0.00 | 0.00 | 53 | 1012.9 |
| 20260506085538 | 39 | 215 | 0.9 | 1.7 | 0.00 | 0.00 | 0.00 | 52 | 1013.0 |
| 20260506085038 | 39 | 215 | 0.9 | 2.6 | 0.00 | 0.00 | 0.00 | 51 | 1012.9 |
| 20260506084541 | 39 | 215 | 0.0 | 2.6 | 0.00 | 0.00 | 0.00 | 51 | 1012.9 |
| 20260506084037 | 39 | 205 | 1.7 | 2.6 | 0.00 | 0.00 | 0.00 | 50 | 1012.9 |
| 20260506083535 | 40 | 205 | 0.0 | 1.7 | 0.00 | 0.00 | 0.00 | 50 | 1012.9 |
| 20260506083033 | 40 | 205 | 0.9 | 1.7 | 0.00 | 0.00 | 0.00 | 51 | 1012.7 |
| 20260506082531 | 40 | 205 | 0.0 | 1.7 | 0.00 | 0.00 | 0.00 | 51 | 1012.7 |
| 20260506082031 | 41 | 205 | 0.9 | 1.7 | 0.00 | 0.00 | 0.00 | 52 | 1012.8 |
| 20260506081530 | 41 | 205 | 0.9 | 2.6 | 0.00 | 0.00 | 0.00 | 51 | 1012.7 |
| 20260506081029 | 41 | 205 | 0.9 | 3.5 | 0.00 | 0.00 | 0.00 | 52 | 1012.7 |
| 20260506080529 | 42 | 181 | 2.6 | 3.5 | 0.00 | 0.00 | 0.00 | 53 | 1012.7 |
| 20260506073524 | 42 | 181 | 3.5 | 5.2 | 0.00 | 0.00 | 0.00 | 51 | 1012.7 |
| 20260506073021 | 43 | 184 | 3.5 | 5.2 | 0.00 | 0.00 | 0.00 | 50 | 1012.7 |
| 20260506072520 | 43 | 182 | 2.6 | 4.3 | 0.00 | 0.00 | 0.00 | 49 | 1012.7 |
| 20260506072020 | 43 | 183 | 2.6 | 4.3 | 0.00 | 0.00 | 0.00 | 49 | 1012.6 |
| 20260506071518 | 43 | 182 | 2.6 | 4.3 | 0.00 | 0.00 | 0.00 | 50 | 1012.7 |
| 20260506071017 | 43 | 182 | 1.7 | 3.5 | 0.00 | 0.00 | 0.00 | 50 | 1012.6 |
| 20260506070515 | 43 | 181 | 1.7 | 2.6 | 0.00 | 0.00 | 0.00 | 50 | 1012.6 |
| 20260506062512 | 48 | 180 | 0.0 | 1.7 | 0.00 | 0.00 | 0.00 | 44 | 1012.3 |
| 20260506062012 | 48 | 180 | 0.0 | 3.5 | 0.00 | 0.00 | 0.00 | 43 | 1012.3 |
| 20260506061512 | 48 | 191 | 1.7 | 2.6 | 0.00 | 0.00 | 0.00 | 42 | 1012.1 |
| 20260506061013 | 49 | 208 | 0.0 | 0.0 | 0.00 | 0.00 | 0.00 | 42 | 1012.0 |
| 20260506060511 | 49 | 208 | 0.0 | 0.9 | 0.00 | 0.00 | 0.00 | 42 | 1011.9 |
| 20260506051008 | 52 | 5 | 0.0 | 1.7 | 0.00 | 0.00 | 0.00 | 39 | 1011.4 |
| 20260506050506 | 52 | 5 | 0.0 | 0.9 | 0.00 | 0.00 | 0.00 | 38 | 1011.4 |
| 20260506045005 | 52 | 63 | 0.0 | 1.7 | 0.00 | 0.00 | 0.00 | 39 | 1011.5 |
| 20260506044504 | 52 | 63 | 0.0 | 1.7 | 0.00 | 0.00 | 0.00 | 39 | 1011.4 |
| 20260506044004 | 52 | 50 | 0.0 | 1.7 | 0.00 | 0.00 | 0.00 | 38 | 1011.4 |
| 20260506043505 | 52 | 40 | 0.0 | 0.9 | 0.00 | 0.00 | 0.00 | 38 | 1011.4 |
| 20260506043003 | 53 | 40 | 0.0 | 1.7 | 0.00 | 0.00 | 0.00 | 38 | 1011.2 |
| 20260506042507 | 53 | 40 | 0.0 | 1.7 | 0.00 | 0.00 | 0.00 | 37 | 1011.1 |
| 20260506042002 | 54 | 44 | 0.0 | 3.5 | 0.00 | 0.00 | 0.00 | 37 | 1011.1 |
| 20260506041501 | 54 | 46 | 0.9 | 4.3 | 0.00 | 0.00 | 0.00 | 36 | 1011.0 |